| time (UTC) | temp C | wind direction | speed KPH | gust KPH | rain 1hr cm | rain 24hr cm | rain mn cm | humidity % | barometer mb |
| 20260504214557 | 17 | 250 | 6.4 | 19.3 | 0.00 | 0.00 | 0.00 | 70 | 1010.8 |
| 20260504213103 | 16 | 220 | 8.0 | 20.9 | 0.00 | 0.00 | 0.00 | 69 | 1010.9 |
| 20260504211505 | 17 | 204 | 8.0 | 16.1 | 0.00 | 0.00 | 0.00 | 68 | 1010.9 |
| 20260504210113 | 17 | 238 | 8.0 | 19.3 | 0.00 | 0.00 | 0.00 | 68 | 1010.9 |
| 20260504204603 | 17 | 188 | 8.0 | 17.7 | 0.00 | 0.00 | 0.00 | 67 | 1010.8 |
| 20260504203103 | 18 | 236 | 3.2 | 17.7 | 0.00 | 0.00 | 0.00 | 64 | 1010.9 |
| 20260504201502 | 18 | 202 | 3.2 | 11.3 | 0.00 | 0.00 | 0.00 | 65 | 1010.8 |
| 20260504200110 | 18 | 185 | 6.4 | 11.3 | 0.00 | 0.00 | 0.00 | 64 | 1010.9 |
| 20260504194557 | 18 | 191 | 4.8 | 11.3 | 0.00 | 0.00 | 0.00 | 64 | 1010.9 |
| 20260504193100 | 18 | 248 | 3.2 | 11.3 | 0.00 | 0.00 | 0.00 | 61 | 1010.9 |
| 20260504191626 | 21 | 240 | 6.4 | 14.5 | 0.00 | 0.00 | 0.00 | 51 | 1010.8 |
| 20260504184604 | 22 | 208 | 4.8 | 8.0 | 0.00 | 0.00 | 0.00 | 48 | 1010.6 |
| 20260504183002 | 22 | 191 | 1.6 | 9.7 | 0.00 | 0.00 | 0.00 | 50 | 1010.8 |
| 20260504181503 | 21 | 238 | 3.2 | 8.0 | 0.00 | 0.00 | 0.00 | 50 | 1011.0 |
| 20260504180111 | 21 | 222 | 6.4 | 11.3 | 0.00 | 0.00 | 0.00 | 49 | 1010.9 |
| 20260504174558 | 21 | 258 | 1.6 | 11.3 | 0.00 | 0.00 | 0.00 | 52 | 1010.9 |
| 20260504173101 | 21 | 225 | 1.6 | 6.4 | 0.00 | 0.00 | 0.00 | 52 | 1010.9 |
| 20260504171508 | 21 | 247 | 3.2 | 8.0 | 0.00 | 0.00 | 0.00 | 50 | 1011.0 |
| 20260504170115 | 21 | 247 | 3.2 | 12.9 | 0.00 | 0.00 | 0.00 | 50 | 1011.0 |
| 20260504160112 | 21 | 230 | 0.0 | 6.4 | 0.00 | 0.00 | 0.00 | 49 | 1011.0 |
| 20260504150104 | 19 | 200 | 0.0 | 3.2 | 0.00 | 0.00 | 0.00 | 50 | 1010.5 |
| 20260504120124 | 6 | 200 | 0.0 | 3.2 | 0.00 | 0.00 | 0.00 | 88 | 1009.8 |
| 20260504081543 | 15 | 172 | 3.2 | 6.4 | 0.00 | 0.00 | 0.00 | 56 | 1009.1 |
| 20260504060112 | 10 | 197 | 0.0 | 0.0 | 0.00 | 0.00 | 0.00 | 82 | 1009.8 |
| 20260504050110 | 13 | 197 | 0.0 | 3.2 | 0.00 | 0.00 | 0.00 | 74 | 1009.8 |
| 20260504044555 | 13 | 197 | 0.0 | 3.2 | 0.00 | 0.00 | 0.00 | 70 | 1009.8 |
| 20260504043114 | 15 | 242 | 0.0 | 3.2 | 0.00 | 0.00 | 0.00 | 63 | 1009.7 |
| 20260504041602 | 15 | 242 | 0.0 | 1.6 | 0.00 | 0.00 | 0.00 | 65 | 1009.6 |
| 20260504040114 | 16 | 242 | 0.0 | 3.2 | 0.00 | 0.00 | 0.00 | 67 | 1009.5 |
| 20260504034558 | 17 | 242 | 0.0 | 0.0 | 0.00 | 0.00 | 0.00 | 62 | 1009.4 |
| 20260504033125 | 18 | 242 | 0.0 | 1.6 | 0.00 | 0.00 | 0.00 | 58 | 1009.3 |
| 20260504031506 | 20 | 242 | 0.0 | 0.0 | 0.00 | 0.00 | 0.00 | 53 | 1009.3 |
| 20260504030119 | 21 | 242 | 0.0 | 1.6 | 0.00 | 0.00 | 0.00 | 48 | 1009.3 |
| 20260504024557 | 23 | 242 | 0.0 | 1.6 | 0.00 | 0.00 | 0.00 | 41 | 1009.4 |
| 20260504023100 | 25 | 242 | 0.0 | 1.6 | 0.00 | 0.00 | 0.00 | 35 | 1009.5 |
| 20260504021603 | 25 | 242 | 0.0 | 4.8 | 0.00 | 0.00 | 0.00 | 32 | 1009.7 |
| 20260504020108 | 26 | 242 | 0.0 | 6.4 | 0.00 | 0.00 | 0.00 | 31 | 1009.8 |
| 20260504014547 | 25 | 199 | 0.0 | 3.2 | 0.00 | 0.00 | 0.00 | 31 | 1010.0 |
| 20260504013054 | 25 | 215 | 0.0 | 4.8 | 0.00 | 0.00 | 0.00 | 33 | 1010.1 |
| 20260504011556 | 25 | 185 | 1.6 | 6.4 | 0.00 | 0.00 | 0.00 | 33 | 1010.3 |
| 20260504010100 | 25 | 203 | 0.0 | 6.4 | 0.00 | 0.00 | 0.00 | 30 | 1010.5 |
| 20260504004545 | 26 | 333 | 0.0 | 6.4 | 0.00 | 0.00 | 0.00 | 30 | 1010.7 |
| 20260504003045 | 26 | 210 | 0.0 | 4.8 | 0.00 | 0.00 | 0.00 | 31 | 1010.7 |
| 20260504001557 | 26 | 238 | 0.0 | 8.0 | 0.00 | 0.00 | 0.00 | 32 | 1010.9 |
| 20260504000059 | 25 | 218 | 3.2 | 8.0 | 0.00 | 0.00 | 0.00 | 30 | 1011.0 |
| 20260503234546 | 26 | 233 | 1.6 | 6.4 | 0.00 | 0.00 | 0.00 | 31 | 1011.1 |
| 20260503233052 | 26 | 217 | 1.6 | 6.4 | 0.00 | 0.00 | 0.00 | 35 | 1011.3 |
| 20260503231553 | 25 | 231 | 0.0 | 6.4 | 0.00 | 0.00 | 0.00 | 34 | 1011.4 |
| 20260503230111 | 25 | 245 | 1.6 | 8.0 | 0.00 | 0.00 | 0.00 | 34 | 1011.6 |
| 20260503224544 | 25 | 238 | 3.2 | 9.7 | 0.00 | 0.00 | 0.00 | 40 | 1011.8 |
| 20260503223101 | 25 | 229 | 0.0 | 6.4 | 0.00 | 0.00 | 0.00 | 39 | 1012.1 |
| 20260503221553 | 25 | 333 | 0.0 | 4.8 | 0.00 | 0.00 | 0.00 | 44 | 1012.3 |
| 20260503220056 | 24 | 285 | 0.0 | 4.8 | 0.00 | 0.00 | 0.00 | 42 | 1012.5 |